Sharm El Sheikh, Egypt

2:16 AM EET on March 24, 2017 (GMT +0200)
Sharm El Sheikh International

Weather History for HESH - April, 2013

Change the Weather History Date:

Sunday, April 21, 2013

  Actual Average Record
Temperature  
Mean Temperature 72 °F -  
Max Temperature 82 °F - - ()
Min Temperature 62 °F - - ()
Cooling Degree Days 7    
Growing Degree Days 22 (Base 50)    
Moisture  
Dew Point 42 °F    
Average Humidity 34    
Maximum Humidity 46    
Minimum Humidity 16    
Precipitation  
Precipitation 0.00 in - - ()
Sea Level Pressure  
Sea Level Pressure 29.89 in    
Wind  
Wind Speed 7 mph ()    
Max Wind Speed 12 mph    
Max Gust Speed -    
Visibility 6.2 miles    
Events      
T = Trace of Precipitation, MM = Missing Value Source: Averaged Metar Reports

Daily Weather History Graph

Daily Weather History Graph

Search for Another Location

Airport or City:

Trip Planner

Search our weather history database for the weather conditions in past years. The results will help you decide how hot, cold, wet, or windy it might be!

Date:

Astronomy

Apr. 21, 2013 Rise Set
Actual Time 5:11 AM EET 6:11 PM EET
Civil Twilight 4:47 AM EET 6:35 PM EET
Nautical Twilight 4:18 AM EET 7:04 PM EET
Astronomical Twilight 3:49 AM EET 7:33 PM EET
Moon 1:57 PM EET (4/21) 1:58 AM EET (4/21)
Length of Visible Light 13h 47m
Length of Day
12h 59m
Waxing Gibbous, 77% of the Moon is Illuminated
Apr 21
Waxing Gibbous
Apr 25
Full
May 2
Last Quarter
May 10
New
May 18
First Quarter

Hourly Weather History & Observations

Time (EET) Temp. Dew Point Humidity Pressure Visibility Wind Dir Wind Speed Gust Speed Precip Events Conditions
12:00 AM 71.6 °F 42.8 °F 35% 29.92 in - North 11.5 mph - N/A   Clear
1:00 AM 68.0 °F 44.6 °F 43% 29.92 in - North 8.1 mph - N/A   Clear
2:00 AM 66.2 °F 42.8 °F 43% 29.89 in - North 8.1 mph - N/A   Clear
3:00 AM 66.2 °F 44.6 °F 46% 29.89 in - North 9.2 mph - N/A   Clear
4:00 AM 62.6 °F 41.0 °F 45% 29.89 in - North 8.1 mph - N/A   Clear
5:00 AM 64.4 °F 41.0 °F 42% 29.92 in - North 5.8 mph - N/A   Clear
6:00 AM 66.2 °F 42.8 °F 43% 29.92 in - North 5.8 mph - N/A   Clear
7:00 AM 71.6 °F 42.8 °F 35% 29.92 in - North 10.4 mph - N/A   Clear
8:00 AM 73.4 °F 41.0 °F 31% 29.95 in - North 8.1 mph - N/A   Clear
9:00 AM 78.8 °F 41.0 °F 26% 29.95 in - NE 3.5 mph - N/A   Clear
10:00 AM 78.8 °F 41.0 °F 26% 29.95 in - ENE 5.8 mph - N/A   Clear
11:00 AM 78.8 °F 41.0 °F 26% 29.95 in - SE 8.1 mph - N/A   Clear
12:00 PM 78.8 °F 41.0 °F 26% 29.92 in - SSE 10.4 mph - N/A   Clear
1:00 PM 78.8 °F 41.0 °F 26% 29.89 in 6.2 mi SSE 11.5 mph - N/A   Partly Cloudy
2:00 PM 82.4 °F 32.0 °F 16% 29.86 in - SE 11.5 mph - N/A   Clear
3:00 PM 82.4 °F 41.0 °F 23% 29.83 in - North - - N/A   Clear
5:00 PM 78.8 °F 42.8 °F 28% 29.83 in - ESE 9.2 mph - N/A   Clear
6:00 PM 75.2 °F 46.4 °F 36% 29.83 in - East 3.5 mph - N/A   Clear
7:00 PM 71.6 °F 46.4 °F 41% 29.83 in - Variable 2.3 mph - N/A   Clear
8:00 PM 69.8 °F 44.6 °F 40% 29.86 in - Variable 2.3 mph - N/A   Clear
9:00 PM 68.0 °F 41.0 °F 37% 29.86 in - North 2.3 mph - N/A   Clear
10:00 PM 66.2 °F 39.2 °F 37% 29.86 in - Variable 1.2 mph - N/A   Clear
11:00 PM 66.2 °F 33.8 °F 30% 29.89 in - Variable 2.3 mph - N/A   Clear